Yuma MCAS, AZ

5:58 AM MST on April 22, 2018 (GMT -0700)
Yuma Marine Corps Air Station

Weather History for KNYL - November, 2012

Change the Weather History Date:

Thursday, November 15, 2012

  Actual Average Record
Temperature  
Mean Temperature 64 °F 66 °F  
Max Temperature 69 °F 78 °F 91 °F (1999)
Min Temperature 58 °F 54 °F 36 °F (2000)
Degree Days  
Heating Degree Days 1 2  
Month to date heating degree days 22 13  
Since 1 July heating degree days 22 15  
Cooling Degree Days 0 3  
Month to date cooling degree days 80 69  
Year to date cooling degree days 4870 4631  
Growing Degree Days 14 (Base 50)    
Moisture  
Dew Point 23 °F    
Average Humidity 21    
Maximum Humidity 26    
Minimum Humidity 15    
Precipitation  
Precipitation T in 0.00 in 0.45 in (1993)
Month to date precipitation T 0.09  
Year to date precipitation 2.37 2.92  
Sea Level Pressure  
Sea Level Pressure 30.04 in    
Wind  
Wind Speed 4 mph (NE)    
Max Wind Speed 14 mph    
Max Gust Speed 17 mph    
Visibility 10 miles    
Events      
T = Trace of Precipitation, MM = Missing Value Source: NWS Daily Summary

Daily Weather History Graph

Daily Weather History Graph

Search for Another Location

Airport or City:

Astronomy

Nov. 15, 2012 Rise Set
Actual Time 7:08 AM MST 5:37 PM MST
Civil Twilight 6:42 AM MST 6:03 PM MST
Nautical Twilight 6:12 AM MST 6:32 PM MST
Astronomical Twilight 5:43 AM MST 7:02 PM MST
Moon 9:05 AM MST (11/15) 7:36 PM MST (11/15)
Length of Visible Light 11h 20m
Length of Day
10h 28m
Waxing Crescent, 5% of the Moon is Illuminated
Nov 15
Waxing Crescent
Nov 20
First Quarter
Nov 28
Full
Dec 6
Last Quarter
Dec 13
New

Hourly Weather History & Observations

Time (MST) Temp. Dew Point Humidity Pressure Visibility Wind Dir Wind Speed Gust Speed Precip Events Conditions
12:55 AM 61.0 °F 21.9 °F 22% 30.01 in 10.0 mi Calm Calm - N/A   Mostly Cloudy
1:55 AM 60.1 °F 21.9 °F 23% 30.01 in 10.0 mi Calm Calm - N/A   Mostly Cloudy
2:55 AM 61.0 °F 21.0 °F 21% 30.01 in 10.0 mi NE 4.6 mph - N/A   Mostly Cloudy
3:55 AM 61.0 °F 17.1 °F 18% 30.00 in 10.0 mi NNE 3.5 mph - N/A   Mostly Cloudy
4:55 AM 59.0 °F 21.0 °F 23% 30.00 in 10.0 mi North 3.5 mph - N/A   Mostly Cloudy
5:55 AM 60.1 °F 19.0 °F 20% 30.01 in 10.0 mi NNE 3.5 mph - N/A   Mostly Cloudy
6:55 AM 60.1 °F 21.0 °F 22% 30.05 in 10.0 mi Calm Calm - N/A   Mostly Cloudy
7:55 AM 60.1 °F 21.9 °F 23% 30.04 in 9.0 mi ENE 5.8 mph - N/A   Mostly Cloudy
8:55 AM 63.0 °F 19.9 °F 19% 30.07 in 10.0 mi NNE 8.1 mph - N/A   Mostly Cloudy
9:55 AM 64.0 °F 19.9 °F 18% 30.09 in 10.0 mi NE 9.2 mph - N/A   Mostly Cloudy
10:55 AM 64.9 °F 21.9 °F 19% 30.09 in 10.0 mi NE 8.1 mph - N/A   Overcast
11:55 AM 66.9 °F 17.1 °F 15% 30.08 in 10.0 mi NE 9.2 mph - N/A   Overcast
12:55 PM 68.0 °F 19.0 °F 15% 30.05 in 10.0 mi NNE 9.2 mph - N/A   Overcast
1:55 PM 68.0 °F 23.0 °F 18% 30.05 in 10.0 mi North 5.8 mph - N/A   Overcast
2:55 PM 69.1 °F 19.9 °F 15% 30.05 in 10.0 mi NE 3.5 mph - N/A   Overcast
3:55 PM 69.1 °F 23.0 °F 18% 30.05 in 10.0 mi NE 4.6 mph - N/A   Overcast
4:55 PM 68.0 °F 32.0 °F 26% 30.05 in 10.0 mi Calm Calm - N/A   Mostly Cloudy
5:55 PM 66.9 °F 23.0 °F 19% 30.04 in 10.0 mi Calm Calm - N/A   Mostly Cloudy
6:55 PM 66.0 °F 30.0 °F 26% 30.04 in 10.0 mi ENE 5.8 mph - 0.00 in   Overcast
7:55 PM 66.0 °F 24.1 °F 20% 30.04 in 10.0 mi East 5.8 mph - 0.00 in   Mostly Cloudy
8:55 PM 66.0 °F 23.0 °F 20% 30.04 in 10.0 mi NNE 4.6 mph - N/A   Mostly Cloudy
9:55 PM 64.9 °F 23.0 °F 20% 30.06 in 10.0 mi NNW 4.6 mph - N/A   Mostly Cloudy
10:55 PM 64.0 °F 26.1 °F 24% 30.04 in 10.0 mi Calm Calm - N/A   Mostly Cloudy
11:55 PM 61.0 °F 34.0 °F 36% 30.04 in 10.0 mi Calm Calm - N/A   Mostly Cloudy